Time,TemperatureF,DewpointF,PressureIn,WindDirection,WindDirectionDegrees,WindSpeedMPH,WindSpeedGustMPH,Humidity,HourlyPrecipIn,Conditions,Clouds,dailyrainin,SolarRadiationWatts/m^2,SoftwareType,DateUTC
2013-06-03 00:01:00,53.4,46.0,29.85,North,32767,0.0,0.0,76,0.00,,,0.00,0,Wunderground v.1.15,2013-06-03 04:01:00,
2013-06-03 00:04:00,53.3,45.2,29.85,North,32767,0.0,0.0,74,0.00,,,0.00,0,Wunderground v.1.15,2013-06-03 04:04:00,
2013-06-03 00:05:00,53.3,45.9,29.84,North,32767,0.0,0.0,76,0.00,,,0.00,0,Wunderground v.1.15,2013-06-03 04:05:00,
2013-06-03 00:06:00,53.3,45.2,29.85,North,32767,0.0,0.0,74,0.00,,,0.00,0,Wunderground v.1.15,2013-06-03 04:06:00,
2013-06-03 00:09:00,53.2,45.1,29.85,North,32767,0.0,0.0,74,0.00,,,0.00,0,Wunderground v.1.15,2013-06-03 04:09:00,
2013-06-03 00:15:00,53.0,45.3,29.85,North,32767,0.0,0.0,75,0.00,,,0.00,0,Wunderground v.1.15,2013-06-03 04:15:00,
2013-06-03 00:20:00,52.9,45.2,29.85,North,32767,0.0,0.0,75,0.00,,,0.00,0,Wunderground v.1.15,2013-06-03 04:20:00,
2013-06-03 00:25:00,52.8,44.7,29.85,North,32767,0.0,0.0,74,0.00,,,0.00,0,Wunderground v.1.15,2013-06-03 04:25:00,
2013-06-03 00:30:00,52.6,44.5,29.85,North,32767,0.0,0.0,74,0.00,,,0.00,0,Wunderground v.1.15,2013-06-03 04:30:00,
2013-06-03 00:35:00,52.5,44.8,29.85,North,32767,0.0,0.0,75,0.00,,,0.00,0,Wunderground v.1.15,2013-06-03 04:35:00,
2013-06-03 00:41:00,52.4,44.4,29.85,North,32767,0.0,0.0,74,0.00,,,0.00,0,Wunderground v.1.15,2013-06-03 04:41:00,
2013-06-03 00:47:00,52.2,43.8,29.85,North,32767,0.0,0.0,73,0.00,,,0.00,0,Wunderground v.1.15,2013-06-03 04:47:00,
2013-06-03 00:52:00,52.1,43.7,29.85,North,32767,0.0,0.0,73,0.00,,,0.00,0,Wunderground v.1.15,2013-06-03 04:52:00,
2013-06-03 00:58:00,52.0,44.0,29.85,North,32767,0.0,0.0,74,0.00,,,0.00,0,Wunderground v.1.15,2013-06-03 04:58:00,
2013-06-03 01:04:00,51.9,43.9,29.85,North,32767,0.0,0.0,74,0.00,,,0.00,0,Wunderground v.1.15,2013-06-03 05:04:00,
2013-06-03 01:10:00,51.7,43.3,29.85,North,32767,0.0,0.0,73,0.00,,,0.00,0,Wunderground v.1.15,2013-06-03 05:10:00,
2013-06-03 01:16:00,51.6,43.2,29.86,North,32767,0.0,0.0,73,0.00,,,0.00,0,Wunderground v.1.15,2013-06-03 05:16:00,
2013-06-03 01:21:00,51.5,43.1,29.85,North,32767,0.0,0.0,73,0.00,,,0.00,0,Wunderground v.1.15,2013-06-03 05:21:00,
2013-06-03 01:27:00,51.4,43.4,29.86,North,32767,0.0,0.0,74,0.00,,,0.00,0,Wunderground v.1.15,2013-06-03 05:27:00,
2013-06-03 01:32:00,51.3,43.6,29.86,North,32767,0.0,0.0,75,0.00,,,0.00,0,Wunderground v.1.15,2013-06-03 05:32:00,
2013-06-03 01:38:00,51.3,44.0,29.86,North,32767,0.0,0.0,76,0.00,,,0.00,0,Wunderground v.1.15,2013-06-03 05:38:00,
2013-06-03 01:44:00,51.3,43.6,29.86,North,32767,0.0,0.0,75,0.00,,,0.00,0,Wunderground v.1.15,2013-06-03 05:44:00,
2013-06-03 01:49:00,51.2,43.5,29.86,North,32767,0.0,0.0,75,0.00,,,0.00,0,Wunderground v.1.15,2013-06-03 05:49:00,
2013-06-03 01:54:00,51.3,43.6,29.86,North,32767,0.0,0.0,75,0.00,,,0.00,0,Wunderground v.1.15,2013-06-03 05:54:00,
2013-06-03 02:00:00,51.2,43.9,29.86,North,32767,0.0,0.0,76,0.00,,,0.00,0,Wunderground v.1.15,2013-06-03 06:00:00,
2013-06-03 02:05:00,51.2,43.9,29.86,North,32767,0.0,0.0,76,0.00,,,0.00,0,Wunderground v.1.15,2013-06-03 06:05:00,
2013-06-03 02:10:00,51.1,43.1,29.87,North,32767,0.0,0.0,74,0.00,,,0.00,0,Wunderground v.1.15,2013-06-03 06:10:00,
2013-06-03 02:16:00,51.1,43.4,29.87,North,32767,0.0,0.0,75,0.00,,,0.00,0,Wunderground v.1.15,2013-06-03 06:16:00,
2013-06-03 02:22:00,51.0,43.7,29.86,North,32767,0.0,0.0,76,0.00,,,0.00,0,Wunderground v.1.15,2013-06-03 06:22:00,
2013-06-03 02:27:00,50.9,43.3,29.87,North,32767,0.0,0.0,75,0.00,,,0.00,0,Wunderground v.1.15,2013-06-03 06:27:00,
2013-06-03 02:33:00,50.8,43.5,29.86,North,32767,0.0,0.0,76,0.00,,,0.00,0,Wunderground v.1.15,2013-06-03 06:33:00,
2013-06-03 02:39:00,50.6,43.0,29.86,North,32767,0.0,0.0,75,0.00,,,0.00,0,Wunderground v.1.15,2013-06-03 06:39:00,
2013-06-03 02:45:00,50.4,42.8,29.86,North,32767,0.0,0.0,75,0.00,,,0.00,0,Wunderground v.1.15,2013-06-03 06:45:00,
2013-06-03 02:51:00,50.2,42.6,29.86,North,32767,0.0,0.0,75,0.00,,,0.00,0,Wunderground v.1.15,2013-06-03 06:51:00,
2013-06-03 02:57:00,49.9,42.3,29.87,North,32767,0.0,0.0,75,0.00,,,0.00,0,Wunderground v.1.15,2013-06-03 06:57:00,
2013-06-03 03:02:00,49.7,42.1,29.87,North,32767,0.0,0.0,75,0.00,,,0.00,0,Wunderground v.1.15,2013-06-03 07:02:00,
2013-06-03 03:08:00,49.4,41.5,29.87,North,32767,0.0,0.0,74,0.00,,,0.00,0,Wunderground v.1.15,2013-06-03 07:08:00,
2013-06-03 03:14:00,49.2,42.0,29.87,North,32767,0.0,0.0,76,0.00,,,0.00,0,Wunderground v.1.15,2013-06-03 07:14:00,
2013-06-03 03:19:00,49.0,41.8,29.88,North,32767,0.0,0.0,76,0.00,,,0.00,0,Wunderground v.1.15,2013-06-03 07:19:00,
2013-06-03 03:25:00,48.8,41.9,29.88,North,32767,0.0,0.0,77,0.00,,,0.00,0,Wunderground v.1.15,2013-06-03 07:25:00,
2013-06-03 03:31:00,48.5,41.3,29.88,North,32767,0.0,0.0,76,0.00,,,0.00,0,Wunderground v.1.15,2013-06-03 07:31:00,
2013-06-03 03:37:00,48.1,40.9,29.88,North,32767,0.0,0.0,76,0.00,,,0.00,0,Wunderground v.1.15,2013-06-03 07:37:00,
2013-06-03 03:42:00,47.8,40.6,29.88,North,32767,0.0,0.0,76,0.00,,,0.00,0,Wunderground v.1.15,2013-06-03 07:42:00,
2013-06-03 03:47:00,47.4,40.9,29.88,North,32767,0.0,0.0,78,0.00,,,0.00,0,Wunderground v.1.15,2013-06-03 07:47:00,
2013-06-03 03:53:00,47.0,40.5,29.88,North,32767,0.0,0.0,78,0.00,,,0.00,0,Wunderground v.1.15,2013-06-03 07:53:00,
2013-06-03 03:58:00,46.8,40.6,29.88,North,32767,0.0,0.0,79,0.00,,,0.00,0,Wunderground v.1.15,2013-06-03 07:58:00,
2013-06-03 04:03:00,46.4,40.6,29.88,North,32767,0.0,0.0,80,0.00,,,0.00,0,Wunderground v.1.15,2013-06-03 08:03:00,
2013-06-03 04:09:00,46.1,40.6,29.88,North,32767,0.0,0.0,81,0.00,,,0.00,0,Wunderground v.1.15,2013-06-03 08:09:00,
2013-06-03 04:14:00,45.8,40.6,29.88,North,32767,0.0,0.0,82,0.00,,,0.00,0,Wunderground v.1.15,2013-06-03 08:14:00,
2013-06-03 04:20:00,45.5,40.3,29.88,North,32767,0.0,0.0,82,0.00,,,0.00,0,Wunderground v.1.15,2013-06-03 08:20:00,
2013-06-03 04:26:00,45.2,40.3,29.88,North,32767,0.0,0.0,83,0.00,,,0.00,0,Wunderground v.1.15,2013-06-03 08:26:00,
2013-06-03 04:31:00,45.0,40.5,29.89,North,32767,0.0,0.0,84,0.00,,,0.00,0,Wunderground v.1.15,2013-06-03 08:31:00,
2013-06-03 04:37:00,44.8,40.3,29.89,North,32767,0.0,0.0,84,0.00,,,0.00,0,Wunderground v.1.15,2013-06-03 08:37:00,
2013-06-03 04:43:00,44.5,40.0,29.89,North,32767,0.0,0.0,84,0.00,,,0.00,0,Wunderground v.1.15,2013-06-03 08:43:00,
2013-06-03 04:49:00,44.3,40.1,29.89,North,32767,0.0,0.0,85,0.00,,,0.00,0,Wunderground v.1.15,2013-06-03 08:49:00,
2013-06-03 04:55:00,44.0,40.1,29.89,North,32767,0.0,0.0,86,0.00,,,0.00,0,Wunderground v.1.15,2013-06-03 08:55:00,
2013-06-03 05:01:00,43.8,39.9,29.89,North,32767,0.0,0.0,86,0.00,,,0.00,0,Wunderground v.1.15,2013-06-03 09:01:00,
2013-06-03 05:07:00,43.5,39.9,29.90,North,32767,0.0,0.0,87,0.00,,,0.00,0,Wunderground v.1.15,2013-06-03 09:07:00,
2013-06-03 05:12:00,43.3,39.7,29.90,North,32767,0.0,0.0,87,0.00,,,0.00,0,Wunderground v.1.15,2013-06-03 09:12:00,
2013-06-03 05:18:00,43.1,39.8,29.90,North,32767,0.0,0.0,88,0.00,,,0.00,0,Wunderground v.1.15,2013-06-03 09:18:00,
2013-06-03 05:23:00,42.9,39.6,29.90,North,32767,0.0,0.0,88,0.00,,,0.00,0,Wunderground v.1.15,2013-06-03 09:23:00,
2013-06-03 05:29:00,42.7,39.4,29.90,North,32767,0.0,0.0,88,0.00,,,0.00,0,Wunderground v.1.15,2013-06-03 09:29:00,
2013-06-03 05:35:00,42.4,39.4,29.90,North,32767,0.0,0.0,89,0.00,,,0.00,0,Wunderground v.1.15,2013-06-03 09:35:00,
2013-06-03 05:41:00,42.2,39.2,29.90,North,32767,0.0,0.0,89,0.00,,,0.00,0,Wunderground v.1.15,2013-06-03 09:41:00,
2013-06-03 05:47:00,42.1,39.1,29.90,North,32767,0.0,0.0,89,0.00,,,0.00,0,Wunderground v.1.15,2013-06-03 09:47:00,
2013-06-03 05:52:00,41.9,39.2,29.91,North,32767,0.0,0.0,90,0.00,,,0.00,0,Wunderground v.1.15,2013-06-03 09:52:00,
2013-06-03 05:58:00,41.7,39.0,29.90,North,32767,0.0,0.0,90,0.00,,,0.00,0,Wunderground v.1.15,2013-06-03 09:58:00,
2013-06-03 06:04:00,41.5,38.8,29.90,North,32767,0.0,0.0,90,0.00,,,0.00,0,Wunderground v.1.15,2013-06-03 10:04:00,
2013-06-03 06:09:00,41.4,38.7,29.90,North,32767,0.0,0.0,90,0.00,,,0.00,0,Wunderground v.1.15,2013-06-03 10:09:00,
2013-06-03 06:14:00,41.2,38.8,29.90,North,32767,0.0,0.0,91,0.00,,,0.00,0,Wunderground v.1.15,2013-06-03 10:14:00,
2013-06-03 06:20:00,41.1,38.7,29.90,North,32767,0.0,0.0,91,0.00,,,0.00,5,Wunderground v.1.15,2013-06-03 10:20:00,
2013-06-03 06:26:00,40.9,38.5,29.91,North,32767,0.0,0.0,91,0.00,,,0.00,9,Wunderground v.1.15,2013-06-03 10:26:00,
2013-06-03 06:31:00,40.8,38.4,29.91,North,32767,0.0,0.0,91,0.00,,,0.00,11,Wunderground v.1.15,2013-06-03 10:31:00,
2013-06-03 06:36:00,40.7,38.6,29.91,North,32767,0.0,0.0,92,0.00,,,0.00,12,Wunderground v.1.15,2013-06-03 10:36:00,
2013-06-03 06:42:00,40.7,38.8,29.91,North,32767,0.0,0.0,93,0.00,,,0.00,14,Wunderground v.1.15,2013-06-03 10:42:00,
2013-06-03 06:47:00,40.7,38.8,29.91,North,32767,0.0,0.0,93,0.00,,,0.00,16,Wunderground v.1.15,2013-06-03 10:47:00,
2013-06-03 06:53:00,40.7,38.8,29.91,North,32767,0.0,0.0,93,0.00,,,0.00,18,Wunderground v.1.15,2013-06-03 10:53:00,
2013-06-03 06:58:00,40.9,39.3,29.91,North,32767,0.0,0.0,94,0.00,,,0.00,19,Wunderground v.1.15,2013-06-03 10:58:00,
2013-06-03 07:03:00,41.0,39.7,29.91,North,32767,0.0,0.0,95,0.00,,,0.00,19,Wunderground v.1.15,2013-06-03 11:03:00,
2013-06-03 07:09:00,41.2,39.9,29.91,North,32767,0.0,0.0,95,0.00,,,0.00,21,Wunderground v.1.15,2013-06-03 11:09:00,
2013-06-03 07:14:00,41.3,40.0,29.92,North,32767,0.0,0.0,95,0.00,,,0.00,23,Wunderground v.1.15,2013-06-03 11:14:00,
2013-06-03 07:20:00,41.6,40.3,29.92,North,32767,0.0,0.0,95,0.00,,,0.00,26,Wunderground v.1.15,2013-06-03 11:20:00,
2013-06-03 07:26:00,42.0,40.7,29.92,North,32767,0.0,0.0,95,0.00,,,0.00,30,Wunderground v.1.15,2013-06-03 11:26:00,
2013-06-03 07:32:00,42.6,41.3,29.91,North,32767,0.0,0.0,95,0.00,,,0.00,33,Wunderground v.1.15,2013-06-03 11:32:00,
2013-06-03 07:37:00,43.2,41.3,29.92,North,32767,0.0,0.0,93,0.00,,,0.00,37,Wunderground v.1.15,2013-06-03 11:37:00,
2013-06-03 07:43:00,43.9,41.7,29.92,North,32767,0.0,0.0,92,0.00,,,0.00,40,Wunderground v.1.15,2013-06-03 11:43:00,
2013-06-03 07:49:00,44.5,41.7,29.92,North,32767,0.0,0.0,90,0.00,,,0.00,46,Wunderground v.1.15,2013-06-03 11:49:00,
2013-06-03 07:54:00,44.9,41.6,29.92,North,32767,0.0,0.0,88,0.00,,,0.00,49,Wunderground v.1.15,2013-06-03 11:54:00,
2013-06-03 07:59:00,45.4,41.5,29.92,North,32767,0.0,0.0,86,0.00,,,0.00,53,Wunderground v.1.15,2013-06-03 11:59:00,
2013-06-03 08:04:00,45.9,41.9,29.92,North,32767,0.0,0.0,86,0.00,,,0.00,54,Wunderground v.1.15,2013-06-03 12:04:00,
2013-06-03 08:09:00,46.3,42.0,29.92,North,32767,0.0,0.0,85,0.00,,,0.00,56,Wunderground v.1.15,2013-06-03 12:09:00,
2013-06-03 08:15:00,46.7,41.8,29.92,North,32767,0.0,0.0,83,0.00,,,0.00,60,Wunderground v.1.15,2013-06-03 12:15:00,
2013-06-03 08:21:00,47.0,42.1,29.92,North,32767,0.0,0.0,83,0.00,,,0.00,62,Wunderground v.1.15,2013-06-03 12:21:00,
2013-06-03 08:27:00,47.5,42.6,29.92,North,32767,0.0,0.0,83,0.00,,,0.00,67,Wunderground v.1.15,2013-06-03 12:27:00,
2013-06-03 08:32:00,47.8,43.2,29.92,North,32767,0.0,0.0,84,0.00,,,0.00,69,Wunderground v.1.15,2013-06-03 12:32:00,
2013-06-03 08:38:00,48.3,42.7,29.93,North,32767,0.0,0.0,81,0.00,,,0.00,69,Wunderground v.1.15,2013-06-03 12:38:00,
2013-06-03 08:44:00,48.8,42.6,29.93,North,32767,0.0,0.0,79,0.00,,,0.00,86,Wunderground v.1.15,2013-06-03 12:44:00,
2013-06-03 08:49:00,49.1,42.5,29.92,North,32767,0.0,0.0,78,0.00,,,0.00,462,Wunderground v.1.15,2013-06-03 12:49:00,
2013-06-03 08:55:00,49.5,42.2,29.93,North,32767,0.0,0.0,76,0.00,,,0.00,483,Wunderground v.1.15,2013-06-03 12:55:00,
2013-06-03 09:00:00,49.9,43.6,29.93,North,32767,0.0,0.0,79,0.00,,,0.00,417,Wunderground v.1.15,2013-06-03 13:00:00,
2013-06-03 09:05:00,50.4,43.8,29.93,North,32767,0.0,0.0,78,0.00,,,0.00,512,Wunderground v.1.15,2013-06-03 13:05:00,
2013-06-03 09:11:00,51.3,43.3,29.94,North,32767,0.0,0.0,74,0.00,,,0.00,533,Wunderground v.1.15,2013-06-03 13:11:00,
2013-06-03 09:16:00,52.0,42.5,29.93,North,32767,0.0,0.0,70,0.00,,,0.00,550,Wunderground v.1.15,2013-06-03 13:16:00,
2013-06-03 09:22:00,53.2,43.3,29.93,North,32767,0.0,0.0,69,0.00,,,0.00,543,Wunderground v.1.15,2013-06-03 13:22:00,
2013-06-03 09:27:00,53.9,43.2,29.94,North,32767,0.0,0.0,67,0.00,,,0.00,584,Wunderground v.1.15,2013-06-03 13:27:00,
2013-06-03 09:32:00,54.4,43.3,29.94,North,32767,0.0,0.0,66,0.00,,,0.00,601,Wunderground v.1.15,2013-06-03 13:32:00,
2013-06-03 09:38:00,55.0,43.0,29.94,North,32767,0.0,0.0,64,0.00,,,0.00,622,Wunderground v.1.15,2013-06-03 13:38:00,
2013-06-03 09:44:00,55.6,41.9,29.93,North,32767,0.0,0.0,60,0.00,,,0.00,638,Wunderground v.1.15,2013-06-03 13:44:00,
2013-06-03 09:49:00,55.9,43.9,29.94,North,32767,0.0,0.0,64,0.00,,,0.00,656,Wunderground v.1.15,2013-06-03 13:49:00,
2013-06-03 09:55:00,56.3,43.0,29.94,North,32767,0.0,0.0,61,0.00,,,0.00,675,Wunderground v.1.15,2013-06-03 13:55:00,
2013-06-03 10:00:00,56.3,42.6,29.93,North,32767,0.0,0.0,60,0.00,,,0.00,687,Wunderground v.1.15,2013-06-03 14:00:00,
2013-06-03 10:05:00,56.3,40.8,29.93,North,32767,0.0,0.0,56,0.00,,,0.00,705,Wunderground v.1.15,2013-06-03 14:05:00,
2013-06-03 10:11:00,56.6,42.4,29.93,North,32767,0.0,0.0,59,0.00,,,0.00,721,Wunderground v.1.15,2013-06-03 14:11:00,
2013-06-03 10:17:00,57.0,42.4,29.93,North,32767,0.0,0.0,58,0.00,,,0.00,738,Wunderground v.1.15,2013-06-03 14:17:00,
2013-06-03 10:23:00,57.7,42.6,29.94,North,32767,0.0,0.0,57,0.00,,,0.00,758,Wunderground v.1.15,2013-06-03 14:23:00,
2013-06-03 10:28:00,57.9,41.3,29.93,North,32767,0.0,0.0,54,0.00,,,0.00,770,Wunderground v.1.15,2013-06-03 14:28:00,
2013-06-03 10:34:00,58.0,41.0,29.94,North,32767,0.0,0.0,53,0.00,,,0.00,782,Wunderground v.1.15,2013-06-03 14:34:00,
2013-06-03 10:40:00,58.2,42.1,29.93,North,32767,0.0,0.0,55,0.00,,,0.00,800,Wunderground v.1.15,2013-06-03 14:40:00,
2013-06-03 10:45:00,58.1,41.0,29.93,North,32767,0.0,0.0,53,0.00,,,0.00,809,Wunderground v.1.15,2013-06-03 14:45:00,
2013-06-03 10:51:00,58.2,41.1,29.93,North,32767,0.0,0.0,53,0.00,,,0.00,824,Wunderground v.1.15,2013-06-03 14:51:00,
2013-06-03 10:56:00,58.6,42.9,29.93,North,32767,0.0,0.0,56,0.00,,,0.00,837,Wunderground v.1.15,2013-06-03 14:56:00,
2013-06-03 11:01:00,59.0,41.9,29.94,North,32767,0.0,0.0,53,0.00,,,0.00,853,Wunderground v.1.15,2013-06-03 15:01:00,
2013-06-03 11:07:00,59.5,39.8,29.94,North,32767,0.0,0.0,48,0.00,,,0.00,867,Wunderground v.1.15,2013-06-03 15:07:00,
2013-06-03 11:13:00,59.9,41.2,29.94,North,32767,0.0,0.0,50,0.00,,,0.00,875,Wunderground v.1.15,2013-06-03 15:13:00,
2013-06-03 11:19:00,60.1,43.4,29.95,North,32767,0.0,0.0,54,0.00,,,0.00,889,Wunderground v.1.15,2013-06-03 15:19:00,
2013-06-03 11:25:00,60.5,40.7,29.94,North,32767,0.0,0.0,48,0.00,,,0.00,904,Wunderground v.1.15,2013-06-03 15:25:00,
2013-06-03 11:31:00,60.5,40.2,29.95,North,32767,0.0,0.0,47,0.00,,,0.00,918,Wunderground v.1.15,2013-06-03 15:31:00,
2013-06-03 11:36:00,60.8,44.5,29.95,North,32767,0.0,0.0,55,0.00,,,0.00,930,Wunderground v.1.15,2013-06-03 15:36:00,
2013-06-03 11:42:00,61.5,42.7,29.95,North,32767,0.0,0.0,50,0.00,,,0.00,940,Wunderground v.1.15,2013-06-03 15:42:00,
2013-06-03 11:47:00,61.9,44.6,29.95,North,32767,0.0,0.0,53,0.00,,,0.00,946,Wunderground v.1.15,2013-06-03 15:47:00,
2013-06-03 11:53:00,62.2,40.0,29.95,North,32767,0.0,0.0,44,0.00,,,0.00,951,Wunderground v.1.15,2013-06-03 15:53:00,
2013-06-03 11:58:00,62.3,41.8,29.95,North,32767,0.0,0.0,47,0.00,,,0.00,963,Wunderground v.1.15,2013-06-03 15:58:00,
2013-06-03 12:03:00,62.4,40.2,29.95,North,32767,0.0,0.0,44,0.00,,,0.00,974,Wunderground v.1.15,2013-06-03 16:03:00,
2013-06-03 12:09:00,62.5,39.1,29.95,North,32767,0.0,0.0,42,0.00,,,0.00,983,Wunderground v.1.15,2013-06-03 16:09:00,
2013-06-03 12:15:00,62.1,42.7,29.94,North,32767,0.0,0.0,49,0.00,,,0.00,988,Wunderground v.1.15,2013-06-03 16:15:00,
2013-06-03 12:20:00,62.4,41.3,29.94,North,32767,0.0,0.0,46,0.00,,,0.00,997,Wunderground v.1.15,2013-06-03 16:20:00,
2013-06-03 12:25:00,62.8,43.3,29.94,North,32767,0.0,0.0,49,0.00,,,0.00,1004,Wunderground v.1.15,2013-06-03 16:25:00,
2013-06-03 12:30:00,62.9,42.9,29.94,North,32767,0.0,0.0,48,0.00,,,0.00,1007,Wunderground v.1.15,2013-06-03 16:30:00,
2013-06-03 12:35:00,62.9,42.4,29.94,North,32767,0.0,0.0,47,0.00,,,0.00,1013,Wunderground v.1.15,2013-06-03 16:35:00,
2013-06-03 12:40:00,63.0,42.4,29.94,North,32767,0.0,0.0,47,0.00,,,0.00,1016,Wunderground v.1.15,2013-06-03 16:40:00,
2013-06-03 12:46:00,63.4,41.7,29.94,North,32767,0.0,0.0,45,0.00,,,0.00,1016,Wunderground v.1.15,2013-06-03 16:46:00,
2013-06-03 12:51:00,63.6,43.5,29.94,North,32767,0.0,0.0,48,0.00,,,0.00,1025,Wunderground v.1.15,2013-06-03 16:51:00,
2013-06-03 12:57:00,63.7,39.5,29.94,North,32767,0.0,0.0,41,0.00,,,0.00,1032,Wunderground v.1.15,2013-06-03 16:57:00,
2013-06-03 13:02:00,63.8,40.9,29.94,North,32767,0.0,0.0,43,0.00,,,0.00,1030,Wunderground v.1.15,2013-06-03 17:02:00,
2013-06-03 13:08:00,64.0,40.4,29.94,North,32767,0.0,0.0,42,0.00,,,0.00,1034,Wunderground v.1.15,2013-06-03 17:08:00,
2013-06-03 13:14:00,64.2,45.2,29.94,North,32767,0.0,0.0,50,0.00,,,0.00,1044,Wunderground v.1.15,2013-06-03 17:14:00,
2013-06-03 13:20:00,64.6,42.2,29.94,North,32767,0.0,0.0,44,0.00,,,0.00,1039,Wunderground v.1.15,2013-06-03 17:20:00,
2013-06-03 13:26:00,64.7,43.4,29.93,North,32767,0.0,0.0,46,0.00,,,0.00,1041,Wunderground v.1.15,2013-06-03 17:26:00,
2013-06-03 13:31:00,64.5,43.3,29.93,North,32767,0.0,0.0,46,0.00,,,0.00,1041,Wunderground v.1.15,2013-06-03 17:31:00,
2013-06-03 13:36:00,64.5,43.3,29.93,North,32767,0.0,0.0,46,0.00,,,0.00,1037,Wunderground v.1.15,2013-06-03 17:36:00,
2013-06-03 13:41:00,64.7,42.9,29.93,North,32767,0.0,0.0,45,0.00,,,0.00,1042,Wunderground v.1.15,2013-06-03 17:41:00,
2013-06-03 13:46:00,64.6,44.5,29.93,North,32767,0.0,0.0,48,0.00,,,0.00,1037,Wunderground v.1.15,2013-06-03 17:46:00,
2013-06-03 13:52:00,64.6,39.1,29.93,North,32767,0.0,0.0,39,0.00,,,0.00,1041,Wunderground v.1.15,2013-06-03 17:52:00,
2013-06-03 13:57:00,65.0,43.1,29.93,North,32767,0.0,0.0,45,0.00,,,0.00,1034,Wunderground v.1.15,2013-06-03 17:57:00,
2013-06-03 14:02:00,65.1,39.5,29.93,North,32767,0.0,0.0,39,0.00,,,0.00,1035,Wunderground v.1.15,2013-06-03 18:02:00,
2013-06-03 14:07:00,64.7,39.8,29.93,North,32767,0.0,0.0,40,0.00,,,0.00,1037,Wunderground v.1.15,2013-06-03 18:07:00,
2013-06-03 14:12:00,64.7,42.9,29.93,North,32767,0.0,0.0,45,0.00,,,0.00,1034,Wunderground v.1.15,2013-06-03 18:12:00,
2013-06-03 14:18:00,64.8,44.1,29.92,North,32767,0.0,0.0,47,0.00,,,0.00,1021,Wunderground v.1.15,2013-06-03 18:18:00,
2013-06-03 14:24:00,65.2,43.3,29.92,North,32767,0.0,0.0,45,0.00,,,0.00,1025,Wunderground v.1.15,2013-06-03 18:24:00,
2013-06-03 14:30:00,65.7,40.1,29.92,North,32767,0.0,0.0,39,0.00,,,0.00,1021,Wunderground v.1.15,2013-06-03 18:30:00,
2013-06-03 14:35:00,65.7,40.7,29.92,North,32767,0.0,0.0,40,0.00,,,0.00,1020,Wunderground v.1.15,2013-06-03 18:35:00,
2013-06-03 14:41:00,65.8,41.4,29.92,North,32767,0.0,0.0,41,0.00,,,0.00,1014,Wunderground v.1.15,2013-06-03 18:41:00,
2013-06-03 14:47:00,65.7,39.4,29.92,North,32767,0.0,0.0,38,0.00,,,0.00,1004,Wunderground v.1.15,2013-06-03 18:47:00,
2013-06-03 14:53:00,65.9,43.9,29.91,North,32767,0.0,0.0,45,0.00,,,0.00,993,Wunderground v.1.15,2013-06-03 18:53:00,
2013-06-03 14:58:00,66.1,39.1,29.91,North,32767,0.0,0.0,37,0.00,,,0.00,986,Wunderground v.1.15,2013-06-03 18:58:00,
2013-06-03 15:03:00,66.1,42.9,29.91,North,32767,0.0,0.0,43,0.00,,,0.00,984,Wunderground v.1.15,2013-06-03 19:03:00,
2013-06-03 15:08:00,66.2,42.4,29.91,North,32767,0.0,0.0,42,0.00,,,0.00,972,Wunderground v.1.15,2013-06-03 19:08:00,
2013-06-03 15:14:00,66.4,42.0,29.91,North,32767,0.0,0.0,41,0.00,,,0.00,969,Wunderground v.1.15,2013-06-03 19:14:00,
2013-06-03 15:20:00,66.2,39.8,29.90,North,32767,0.0,0.0,38,0.00,,,0.00,958,Wunderground v.1.15,2013-06-03 19:20:00,
2013-06-03 15:25:00,66.2,44.2,29.90,North,32767,0.0,0.0,45,0.00,,,0.00,947,Wunderground v.1.15,2013-06-03 19:25:00,
2013-06-03 15:31:00,66.5,43.9,29.90,North,32767,0.0,0.0,44,0.00,,,0.00,935,Wunderground v.1.15,2013-06-03 19:31:00,
2013-06-03 15:36:00,66.7,40.9,29.90,North,32767,0.0,0.0,39,0.00,,,0.00,258,Wunderground v.1.15,2013-06-03 19:36:00,
2013-06-03 15:42:00,66.5,42.7,29.89,North,32767,0.0,0.0,42,0.00,,,0.00,406,Wunderground v.1.15,2013-06-03 19:42:00,
2013-06-03 15:48:00,66.3,39.9,29.89,North,32767,0.0,0.0,38,0.00,,,0.00,113,Wunderground v.1.15,2013-06-03 19:48:00,
2013-06-03 15:54:00,66.1,41.7,29.89,North,32767,0.0,0.0,41,0.00,,,0.00,218,Wunderground v.1.15,2013-06-03 19:54:00,
2013-06-03 15:59:00,66.0,39.7,29.89,North,32767,0.0,0.0,38,0.00,,,0.00,445,Wunderground v.1.15,2013-06-03 19:59:00,
2013-06-03 16:04:00,65.7,42.0,29.89,North,32767,0.0,0.0,42,0.00,,,0.00,123,Wunderground v.1.15,2013-06-03 20:04:00,
2013-06-03 16:09:00,65.7,43.2,29.89,North,32767,0.0,0.0,44,0.00,,,0.00,91,Wunderground v.1.15,2013-06-03 20:09:00,
2013-06-03 16:15:00,65.9,42.8,29.89,North,32767,0.0,0.0,43,0.00,,,0.00,176,Wunderground v.1.15,2013-06-03 20:15:00,
2013-06-03 16:21:00,65.9,42.1,29.89,North,32767,0.0,0.0,42,0.00,,,0.00,158,Wunderground v.1.15,2013-06-03 20:21:00,
2013-06-03 16:27:00,65.9,40.9,29.89,North,32767,0.0,0.0,40,0.00,,,0.00,158,Wunderground v.1.15,2013-06-03 20:27:00,
2013-06-03 16:33:00,65.7,40.7,29.89,North,32767,0.0,0.0,40,0.00,,,0.00,98,Wunderground v.1.15,2013-06-03 20:33:00,
2013-06-03 16:38:00,65.6,42.5,29.89,North,32767,0.0,0.0,43,0.00,,,0.00,86,Wunderground v.1.15,2013-06-03 20:38:00,
2013-06-03 16:44:00,65.6,44.8,29.89,North,32767,0.0,0.0,47,0.00,,,0.00,134,Wunderground v.1.15,2013-06-03 20:44:00,
2013-06-03 16:50:00,65.7,40.1,29.89,North,32767,0.0,0.0,39,0.00,,,0.00,364,Wunderground v.1.15,2013-06-03 20:50:00,
2013-06-03 16:55:00,65.9,40.9,29.90,North,32767,0.0,0.0,40,0.00,,,0.00,137,Wunderground v.1.15,2013-06-03 20:55:00,
2013-06-03 17:00:00,65.9,40.9,29.89,North,32767,0.0,0.0,40,0.00,,,0.00,420,Wunderground v.1.15,2013-06-03 21:00:00,
2013-06-03 17:05:00,66.0,42.9,29.89,North,32767,0.0,0.0,43,0.00,,,0.00,285,Wunderground v.1.15,2013-06-03 21:05:00,
2013-06-03 17:11:00,66.0,42.2,29.89,North,32767,0.0,0.0,42,0.00,,,0.00,584,Wunderground v.1.15,2013-06-03 21:11:00,
2013-06-03 17:16:00,66.0,40.3,29.90,North,32767,0.0,0.0,39,0.00,,,0.00,325,Wunderground v.1.15,2013-06-03 21:16:00,
2013-06-03 17:22:00,66.2,44.8,29.89,North,32767,0.0,0.0,46,0.00,,,0.00,381,Wunderground v.1.15,2013-06-03 21:22:00,
2013-06-03 17:27:00,66.3,44.3,29.89,North,32767,0.0,0.0,45,0.00,,,0.00,95,Wunderground v.1.15,2013-06-03 21:27:00,
2013-06-03 17:32:00,66.1,42.9,29.89,North,32767,0.0,0.0,43,0.00,,,0.00,56,Wunderground v.1.15,2013-06-03 21:32:00,
2013-06-03 17:38:00,65.8,42.1,29.89,North,32767,0.0,0.0,42,0.00,,,0.00,53,Wunderground v.1.15,2013-06-03 21:38:00,
2013-06-03 17:43:00,65.4,41.1,29.89,North,32767,0.0,0.0,41,0.00,,,0.00,51,Wunderground v.1.15,2013-06-03 21:43:00,
2013-06-03 17:49:00,65.1,40.8,29.88,North,32767,0.0,0.0,41,0.00,,,0.00,46,Wunderground v.1.15,2013-06-03 21:49:00,
2013-06-03 17:55:00,64.9,44.2,29.88,North,32767,0.0,0.0,47,0.00,,,0.00,44,Wunderground v.1.15,2013-06-03 21:55:00,
2013-06-03 18:00:00,64.7,40.4,29.89,North,32767,0.0,0.0,41,0.00,,,0.00,42,Wunderground v.1.15,2013-06-03 22:00:00,
2013-06-03 18:06:00,64.6,41.0,29.89,North,32767,0.0,0.0,42,0.00,,,0.00,46,Wunderground v.1.15,2013-06-03 22:06:00,
2013-06-03 18:12:00,64.5,42.1,29.89,North,32767,0.0,0.0,44,0.00,,,0.00,39,Wunderground v.1.15,2013-06-03 22:12:00,
2013-06-03 18:17:00,64.5,43.3,29.89,North,32767,0.0,0.0,46,0.00,,,0.00,44,Wunderground v.1.15,2013-06-03 22:17:00,
2013-06-03 18:22:00,64.4,43.2,29.89,North,32767,0.0,0.0,46,0.00,,,0.00,51,Wunderground v.1.15,2013-06-03 22:22:00,
2013-06-03 18:28:00,64.4,43.2,29.89,North,32767,0.0,0.0,46,0.00,,,0.00,100,Wunderground v.1.15,2013-06-03 22:28:00,
2013-06-03 18:34:00,64.5,44.4,29.89,North,32767,0.0,0.0,48,0.00,,,0.00,70,Wunderground v.1.15,2013-06-03 22:34:00,
2013-06-03 18:40:00,64.4,45.3,29.89,North,32767,0.0,0.0,50,0.00,,,0.00,107,Wunderground v.1.15,2013-06-03 22:40:00,
2013-06-03 18:45:00,64.3,43.1,29.89,North,32767,0.0,0.0,46,0.00,,,0.00,309,Wunderground v.1.15,2013-06-03 22:45:00,
2013-06-03 18:51:00,64.4,43.7,29.89,North,32767,0.0,0.0,47,0.00,,,0.00,336,Wunderground v.1.15,2013-06-03 22:51:00,
2013-06-03 18:56:00,64.5,42.7,29.89,North,32767,0.0,0.0,45,0.00,,,0.00,181,Wunderground v.1.15,2013-06-03 22:56:00,
2013-06-03 19:02:00,64.5,42.7,29.89,North,32767,0.0,0.0,45,0.00,,,0.00,339,Wunderground v.1.15,2013-06-03 23:02:00,
2013-06-03 19:08:00,64.6,43.9,29.90,North,32767,0.0,0.0,47,0.00,,,0.00,160,Wunderground v.1.15,2013-06-03 23:08:00,
2013-06-03 19:14:00,64.4,43.7,29.89,North,32767,0.0,0.0,47,0.00,,,0.00,69,Wunderground v.1.15,2013-06-03 23:14:00,
2013-06-03 19:19:00,64.1,43.4,29.89,North,32767,0.0,0.0,47,0.00,,,0.00,70,Wunderground v.1.15,2013-06-03 23:19:00,
2013-06-03 19:25:00,63.9,42.7,29.89,North,32767,0.0,0.0,46,0.00,,,0.00,44,Wunderground v.1.15,2013-06-03 23:25:00,
2013-06-03 19:30:00,63.7,43.1,29.90,North,32767,0.0,0.0,47,0.00,,,0.00,26,Wunderground v.1.15,2013-06-03 23:30:00,
2013-06-03 19:35:00,63.5,42.9,29.90,North,32767,0.0,0.0,47,0.00,,,0.00,39,Wunderground v.1.15,2013-06-03 23:35:00,
2013-06-03 19:41:00,63.2,43.7,29.90,North,32767,0.0,0.0,49,0.00,,,0.00,30,Wunderground v.1.15,2013-06-03 23:41:00,
2013-06-03 19:47:00,62.9,42.4,29.90,North,32767,0.0,0.0,47,0.00,,,0.00,18,Wunderground v.1.15,2013-06-03 23:47:00,
2013-06-03 19:53:00,62.6,43.2,29.90,North,32767,0.0,0.0,49,0.00,,,0.00,16,Wunderground v.1.15,2013-06-03 23:53:00,
2013-06-03 19:58:00,62.4,43.5,29.91,North,32767,0.0,0.0,50,0.00,,,0.00,16,Wunderground v.1.15,2013-06-03 23:58:00,
2013-06-03 20:03:00,62.2,44.9,29.91,North,32767,0.0,0.0,53,0.00,,,0.00,12,Wunderground v.1.15,2013-06-04 00:03:00,
2013-06-03 20:09:00,61.9,43.6,29.91,North,32767,0.0,0.0,51,0.00,,,0.00,11,Wunderground v.1.15,2013-06-04 00:09:00,
2013-06-03 20:15:00,61.6,43.8,29.91,North,32767,0.0,0.0,52,0.00,,,0.00,12,Wunderground v.1.15,2013-06-04 00:15:00,
2013-06-03 20:21:00,61.3,44.0,29.91,North,32767,0.0,0.0,53,0.00,,,0.00,12,Wunderground v.1.15,2013-06-04 00:21:00,
2013-06-03 20:27:00,61.0,45.2,29.91,North,32767,0.0,0.0,56,0.00,,,0.00,9,Wunderground v.1.15,2013-06-04 00:27:00,
2013-06-03 20:32:00,60.7,43.9,29.91,North,32767,0.0,0.0,54,0.00,,,0.00,7,Wunderground v.1.15,2013-06-04 00:32:00,
2013-06-03 20:38:00,60.3,44.5,29.91,North,32767,0.0,0.0,56,0.00,,,0.00,7,Wunderground v.1.15,2013-06-04 00:38:00,
2013-06-03 20:44:00,60.0,43.8,29.91,North,32767,0.0,0.0,55,0.00,,,0.00,0,Wunderground v.1.15,2013-06-04 00:44:00,
2013-06-03 20:50:00,59.5,43.3,29.91,North,32767,0.0,0.0,55,0.00,,,0.00,5,Wunderground v.1.15,2013-06-04 00:50:00,
2013-06-03 20:55:00,59.1,43.9,29.91,North,32767,0.0,0.0,57,0.00,,,0.00,0,Wunderground v.1.15,2013-06-04 00:55:00,
2013-06-03 21:00:00,58.7,44.0,29.92,North,32767,0.0,0.0,58,0.00,,,0.00,0,Wunderground v.1.15,2013-06-04 01:00:00,
2013-06-03 21:05:00,58.3,44.0,29.91,North,32767,0.0,0.0,59,0.00,,,0.00,0,Wunderground v.1.15,2013-06-04 01:05:00,
2013-06-03 21:11:00,57.8,44.4,29.91,North,32767,0.0,0.0,61,0.00,,,0.00,0,Wunderground v.1.15,2013-06-04 01:11:00,
2013-06-03 21:16:00,57.4,44.5,29.91,North,32767,0.0,0.0,62,0.00,,,0.00,0,Wunderground v.1.15,2013-06-04 01:16:00,
2013-06-03 21:22:00,57.0,45.3,29.92,North,32767,0.0,0.0,65,0.00,,,0.00,0,Wunderground v.1.15,2013-06-04 01:22:00,
2013-06-03 21:27:00,56.7,45.5,29.91,North,32767,0.0,0.0,66,0.00,,,0.00,0,Wunderground v.1.15,2013-06-04 01:27:00,
2013-06-03 21:33:00,56.3,45.5,29.91,North,32767,0.0,0.0,67,0.00,,,0.00,0,Wunderground v.1.15,2013-06-04 01:33:00,
2013-06-03 21:38:00,56.0,45.6,29.92,North,32767,0.0,0.0,68,0.00,,,0.00,0,Wunderground v.1.15,2013-06-04 01:38:00,
2013-06-03 21:43:00,55.7,46.1,29.91,North,32767,0.0,0.0,70,0.00,,,0.00,0,Wunderground v.1.15,2013-06-04 01:43:00,
2013-06-03 21:48:00,55.5,45.9,29.92,North,32767,0.0,0.0,70,0.00,,,0.00,0,Wunderground v.1.15,2013-06-04 01:48:00,
2013-06-03 21:54:00,55.3,45.7,29.92,North,32767,0.0,0.0,70,0.00,,,0.00,0,Wunderground v.1.15,2013-06-04 01:54:00,
2013-06-03 21:59:00,55.1,46.2,29.93,North,32767,0.0,0.0,72,0.00,,,0.00,0,Wunderground v.1.15,2013-06-04 01:59:00,
2013-06-03 22:05:00,55.0,46.5,29.93,North,32767,0.0,0.0,73,0.00,,,0.00,0,Wunderground v.1.15,2013-06-04 02:05:00,
2013-06-03 22:11:00,54.8,46.3,29.93,North,32767,0.0,0.0,73,0.00,,,0.00,0,Wunderground v.1.15,2013-06-04 02:11:00,
2013-06-03 22:16:00,54.6,46.5,29.93,North,32767,0.0,0.0,74,0.00,,,0.00,0,Wunderground v.1.15,2013-06-04 02:16:00,
2013-06-03 22:21:00,54.5,47.1,29.94,North,32767,0.0,0.0,76,0.00,,,0.00,0,Wunderground v.1.15,2013-06-04 02:21:00,
2013-06-03 22:27:00,54.2,47.1,29.94,North,32767,0.0,0.0,77,0.00,,,0.00,0,Wunderground v.1.15,2013-06-04 02:27:00,
2013-06-03 22:32:00,54.0,47.3,29.94,North,32767,0.0,0.0,78,0.00,,,0.00,0,Wunderground v.1.15,2013-06-04 02:32:00,
2013-06-03 22:38:00,53.7,47.3,29.94,North,32767,0.0,0.0,79,0.00,,,0.00,0,Wunderground v.1.15,2013-06-04 02:38:00,
2013-06-03 22:44:00,53.4,47.0,29.95,North,32767,0.0,0.0,79,0.00,,,0.00,0,Wunderground v.1.15,2013-06-04 02:44:00,
2013-06-03 22:49:00,53.2,47.5,29.95,North,32767,0.0,0.0,81,0.00,,,0.00,0,Wunderground v.1.15,2013-06-04 02:49:00,
2013-06-03 22:55:00,52.9,47.2,29.95,North,32767,0.0,0.0,81,0.00,,,0.00,0,Wunderground v.1.15,2013-06-04 02:55:00,
2013-06-03 23:01:00,52.6,47.3,29.95,North,32767,0.0,0.0,82,0.00,,,0.00,0,Wunderground v.1.15,2013-06-04 03:01:00,
2013-06-03 23:07:00,52.4,47.1,29.95,North,32767,0.0,0.0,82,0.00,,,0.00,0,Wunderground v.1.15,2013-06-04 03:07:00,
2013-06-03 23:13:00,52.2,47.2,29.95,North,32767,0.0,0.0,83,0.00,,,0.00,0,Wunderground v.1.15,2013-06-04 03:13:00,
2013-06-03 23:19:00,51.9,46.9,29.95,North,32767,0.0,0.0,83,0.00,,,0.00,0,Wunderground v.1.15,2013-06-04 03:19:00,
2013-06-03 23:25:00,51.7,47.0,29.96,North,32767,0.0,0.0,84,0.00,,,0.00,0,Wunderground v.1.15,2013-06-04 03:25:00,
2013-06-03 23:31:00,51.5,46.8,29.96,North,32767,0.0,0.0,84,0.00,,,0.00,0,Wunderground v.1.15,2013-06-04 03:31:00,
2013-06-03 23:37:00,51.3,46.9,29.96,North,32767,0.0,0.0,85,0.00,,,0.00,0,Wunderground v.1.15,2013-06-04 03:37:00,
2013-06-03 23:42:00,51.2,46.8,29.96,North,32767,0.0,0.0,85,0.00,,,0.00,0,Wunderground v.1.15,2013-06-04 03:42:00,
2013-06-03 23:47:00,51.0,46.6,29.96,North,32767,0.0,0.0,85,0.00,,,0.00,0,Wunderground v.1.15,2013-06-04 03:47:00,
2013-06-03 23:53:00,50.9,46.9,29.96,North,32767,0.0,0.0,86,0.00,,,0.00,0,Wunderground v.1.15,2013-06-04 03:53:00,
2013-06-03 23:58:00,50.7,46.7,29.96,North,32767,0.0,0.0,86,0.00,,,0.00,0,Wunderground v.1.15,2013-06-04 03:58:00,